This demonstration page uses our WeatherBlox Daily Observations layout. Learn more.

Left ArrowRight Arrow

Hourly Observations for June 21, 2015

Temp ( °F °C ) Dew Point ( °F °C ) Humidity (%) Winds ( mph kmh ) Pressure ( in mb ) Visibility ( mi km ) Precip ( " mm )
12:12 am 00:12 Mostly Cloudy with Thunderstorms 73 22.8 71 21.7 94 94 SW 17 28 29.91 1013 1 1 0.16 4.06
12:55 am 00:55 Mostly Cloudy with Thunderstorms 73 23 70 21 89 89 S 12 19 29.88 1012 5 8 0.09 2.29
12:59 am 00:59 Mostly Cloudy with Thunderstorms 73 22.8 70 21.1 90 90 S 12 19 29.87 1012 5 8 0.09 2.29
1:13 am 01:13 Partly Cloudy 73 22.8 71 21.7 94 94 S 7 11 29.88 1012 10 16 0.00 0.03
1:59 am 01:59 Mostly Cloudy 75 23.9 72 22.2 90 90 S 7 11 29.84 1011 10 16 0.00 0.03
2:59 am 02:59 Partly Cloudy 77 25 73 22.8 88 88 S 10 17 29.82 1010 9 14 0.00 0.00
3:59 am 03:59 Partly Cloudy 78 25.6 74 23.3 87 87 SSW 14 22 29.81 1010 9 14 0.00 0.00
4:59 am 04:59 Partly Cloudy 79 26.1 74 23.3 85 85 SW 13 20 29.83 1010 9 14 0.00 0.00
5:59 am 05:59 Mostly Cloudy 79 26.1 73 22.8 82 82 SW 14 22 29.85 1011 8 13 0.00 0.00
6:59 am 06:59 Mostly Cloudy 78 25.6 73 22.8 85 85 WSW 9 15 29.87 1012 8 13 0.00 0.00
7:59 am 07:59 Mostly Cloudy 80 26.7 71 21.7 74 74 W 12 19 29.89 1012 9 14 0.00 0.00
8:59 am 08:59 Partly Cloudy 82 27.8 71 21.7 69 69 W 12 19 29.90 1013 10 16 0.00 0.00
9:59 am 09:59 Mostly Sunny 84 28.9 71 21.7 65 65 W 12 19 29.91 1013 10 16 0.00 0.00
10:59 am 10:59 Mostly Sunny 86 30 70 21.1 59 59 W 12 19 29.92 1013 10 16 0.00 0.00
11:59 am 11:59 Mostly Sunny 88 31.1 67 19.4 50 50 W 10 17 29.92 1013 10 16 0.00 0.00
12:59 pm 12:59 Mostly Sunny 89 31.7 69 20.6 52 52 W 13 20 29.91 1013 10 16 0.00 0.00
1:59 pm 13:59 Mostly Sunny 91 32.8 68 20 47 47 W 10 17 29.90 1013 10 16 0.00 0.00
2:59 pm 14:59 Partly Cloudy 92 33.3 68 20 46 46 W 14 22 29.90 1012 10 16 0.00 0.00
3:59 pm 15:59 Partly Cloudy 92 33.3 69 20.6 47 47 W 13 20 29.89 1012 10 16 0.00 0.00
4:59 pm 16:59 Partly Cloudy 92 33.3 70 21.1 49 49 W 14 22 29.88 1012 10 16 0.00 0.00
5:59 pm 17:59 Partly Cloudy 86 29.8 75 24 71 71 W 8 13 29.87 1012 9 14 0.00 0.00
6:59 pm 18:59 Partly Cloudy 91 32.8 71 21.7 52 52 W 10 17 29.88 1012 9 14 0.00 0.00
7:59 pm 19:59 Partly Cloudy 89 31.7 71 21.7 55 55 W 9 15 29.90 1012 8 13 0.00 0.00
8:59 pm 20:59 Partly Cloudy 87 30.6 72 22.2 61 61 W 7 11 29.91 1013 9 14 0.00 0.00
9:59 pm 21:59 Partly Cloudy 84 28.9 71 21.7 65 65 SW 7 11 29.92 1013 9 14 0.00 0.00
10:59 pm 22:59 Mostly Clear 84 28.9 72 22.2 67 67 SW 7 11 29.93 1014 9 14 0.00 0.00
11:59 pm 23:59 Clear 83 28.3 72 22.2 70 70 SW 7 11 29.93 1013 9 14 0.00 0.00

Powered by AerisWeather